Theta_e
339 341 343 343 343 343 342 344 344 344 345 345 346 344 343 343 343 343 341 339 338 340 337 338 339 338 337 334 333 334 334 334
337 337 339 338 338 341 341 342 342 342 343 342 341 342 342 342 342 342 339 338 338 341 339 337 336 335 335 333 332 332 334 333
339 338 338 338 338 340 341 342 341 340 341 340 338 340 340 340 340 340 339 339 340 339 337 336 334 334 333 333 332 330 332 332
341 339 339 340 342 337 336 339 336 336 338 337 338 337 338 339 338 338 339 338 337 337 336 334 333 330 332 333 330 330 330 331
340 340 340 341 341 337 338 337 335 335 336 337 337 336 335 335 336 336 336 335 333 333 332 330 329 329 330 329 331 330 329 330
339 339 339 339 342 340 339 338 336 335 335 337 334 334 333 332 334 334 332 332 330 330 329 327 327 328 328 329 330 329 328 329
339 339 339 340 341 341 339 336 337 336 336 337 336 334 333 332 331 334 332 332 330 329 328 328 326 327 329 331 330 330 329 329
339 339 339 339 338 337 336 338 336 335 335 335 335 333 334 333 332 333 333 331 330 330 329 327 326 326 327 330 330 329 328 328
338 338 338 339 337 336 334 335 335 333 333 338 334 333 333 332 331 330 331 330 329 329 328 327 325 327 327 329 329 329 327 327
338 340 338 337 336 336 334 333 333 334 333 333 334 333 332 331 330 330 331 329 330 328 329 326 324 325 326 327 328 327 326 326
337 338 336 336 335 336 333 332 332 335 335 334 334 333 332 330 330 331 330 328 329 328 326 327 323 324 326 326 326 324 324 325
338 337 335 335 336 334 333 332 330 330 333 334 334 334 333 330 328 328 327 328 327 328 325 325 324 323 326 326 325 322 322 321
337 335 334 333 333 330 331 329 328 327 329 332 333 333 332 331 329 327 326 326 326 326 325 322 321 323 322 321 320 320 317 320
336 335 333 333 333 333 330 332 330 331 328 328 330 331 331 330 328 327 326 327 326 326 325 323 323 324 320 317 312 315 317 317
333 336 333 333 332 332 328 328 329 328 329 328 327 328 329 328 326 326 327 328 327 327 326 324 320 323 322 316 310 308 311 315
316 334 335 333 332 330 327 326 325 327 328 328 326 328 326 328 326 325 327 327 326 326 326 324 323 320 321 322 317 316 310 307
316 318 326 334 331 330 328 326 326 326 327 328 325 324 326 326 328 326 325 325 325 325 325 324 323 321 320 318 316 316 315 311
311 313 317 328 331 330 328 326 326 324 325 323 322 323 322 324 324 324 325 324 324 324 325 324 322 322 322 319 317 314 313 311
306 307 310 313 330 329 329 328 327 325 324 323 322 322 321 321 321 321 321 323 323 324 324 323 323 321 321 319 320 318 318 315
300 302 304 309 326 329 329 329 327 327 325 324 322 321 320 320 320 320 321 323 322 323 323 322 323 322 321 320 320 319 319 317
Wind_Speed
7 7 10 12 12 11 11 10 10 9 7 9 10 11 12 13 20 19 19 18 18 19 19 15 8 11 9 8 6 7 9 6
8 7 7 7 6 11 11 10 10 9 7 8 10 10 11 12 20 19 17 17 18 16 14 11 9 8 11 8 1 6 9 8
9 8 7 8 7 7 10 11 10 10 8 8 9 6 8 11 14 21 19 17 18 16 14 13 11 10 11 10 4 1 8 6
10 8 9 9 7 7 7 6 4 5 6 7 5 7 7 8 11 18 18 15 16 14 12 10 7 1 2 7 4 3 5 7
8 8 8 10 8 6 4 3 3 4 7 7 6 6 7 5 5 6 7 11 6 7 6 3 4 3 3 1 4 5 4 5
11 8 7 7 7 7 7 6 5 4 5 8 6 5 7 7 6 7 7 5 6 6 4 4 5 5 5 4 4 5 3 5
18 14 9 8 10 7 7 6 6 6 5 6 7 7 8 7 6 6 6 7 7 6 6 6 5 5 4 3 2 8 9 6
17 17 14 10 7 9 7 7 7 5 6 6 7 7 7 8 7 7 7 8 6 7 8 6 4 4 4 5 2 6 9 9
18 18 15 12 10 8 7 7 6 5 5 9 6 7 9 9 8 7 7 6 7 6 6 6 4 4 6 5 4 4 9 11
18 15 16 13 9 8 6 6 5 5 5 5 7 7 8 8 7 8 8 6 8 7 8 8 7 6 4 4 3 3 11 12
19 17 18 16 9 9 8 7 5 7 7 7 9 8 7 7 7 6 7 7 7 7 6 8 7 7 6 5 4 2 10 11
19 14 15 14 10 7 7 6 4 5 7 8 11 9 10 8 5 6 6 7 6 7 10 6 7 8 8 7 5 4 9 10
19 17 14 11 10 7 9 8 6 3 4 9 11 10 11 10 7 7 6 8 9 11 7 10 6 6 6 4 1 3 7 10
18 17 17 13 11 8 5 8 3 5 3 5 8 10 11 10 9 9 9 8 10 11 12 7 4 8 6 4 5 2 2 6
10 19 20 16 14 9 5 5 4 4 7 5 5 8 10 9 10 9 9 9 10 12 13 15 10 9 9 5 5 6 4 1
9 10 13 11 15 13 17 12 10 8 8 7 5 8 8 11 10 10 10 8 10 10 10 11 9 12 6 3 1 6 8 2
13 9 6 14 16 15 13 11 9 5 8 10 8 5 9 10 11 10 10 9 9 12 13 12 11 12 11 5 2 4 3 4
14 15 12 7 16 17 17 15 13 9 10 7 6 6 5 7 6 7 8 10 10 10 11 15 12 11 9 7 5 7 6 4
17 16 17 13 13 16 16 16 14 16 13 9 9 7 4 8 8 8 8 8 9 9 12 10 12 12 12 6 4 3 2 4
20 19 18 13 12 15 14 13 9 10 12 9 9 8 7 9 8 9 9 10 10 9 9 9 12 12 14 8 5 4 3 4
Wind_Direction
137 147 147 142 142 148 143 142 137 142 157 175 172 167 161 157 141 141 147 143 143 156 170 183 197 152 136 149 150 110 118 128
147 152 148 141 146 153 148 146 142 144 155 167 164 159 152 152 151 155 158 159 157 174 164 164 156 121 107 111 236 140 126 125
150 159 166 154 154 166 153 150 151 146 151 154 140 129 143 141 155 157 161 165 159 160 167 172 165 167 147 122 100 123 134 135
160 171 174 161 160 163 148 153 151 154 147 144 143 135 140 136 148 153 159 156 152 157 163 159 157 193 142 142 119 169 134 136
170 171 178 163 156 163 155 155 162 168 152 147 146 136 122 128 135 132 142 145 158 153 159 168 173 160 156 148 117 141 127 147
172 177 182 168 155 164 165 162 164 164 163 151 142 136 135 141 152 152 150 158 160 164 171 173 174 179 175 177 168 147 155 138
177 177 182 181 163 168 166 166 169 166 153 156 147 145 152 150 151 157 164 165 170 172 175 177 173 180 174 179 199 158 146 161
177 179 182 175 161 174 167 162 168 159 145 158 153 143 152 161 159 170 170 173 174 176 177 174 182 173 190 196 169 168 156 151
175 175 179 177 164 168 155 155 153 148 155 148 160 156 159 160 169 170 175 175 177 172 167 158 173 180 189 199 158 185 153 151
176 176 178 177 163 153 155 155 149 155 162 154 160 156 157 159 168 174 178 173 180 176 178 172 172 174 183 188 134 201 161 152
175 173 178 179 166 155 154 162 162 170 170 173 172 167 162 160 167 179 167 162 164 167 178 179 170 173 177 164 159 215 163 158
173 171 173 171 171 142 156 166 177 161 176 179 173 175 176 171 172 173 162 159 166 174 170 173 174 180 173 174 173 185 175 164
171 161 169 162 175 165 161 168 179 159 160 169 174 175 176 181 182 176 177 179 183 176 164 167 162 168 147 139 42 238 168 162
168 167 164 171 179 183 156 144 153 174 165 183 179 173 177 182 176 183 182 177 176 177 171 168 163 173 165 145 141 165 31 143
180 171 173 176 176 161 116 100 107 162 206 218 186 175 180 176 169 174 178 184 187 184 179 179 174 180 166 159 142 179 124 78
33 186 175 173 167 166 167 175 180 200 199 206 200 196 178 173 166 176 184 188 190 188 185 182 175 178 169 229 199 139 158 164
1 30 245 178 173 175 172 176 186 157 180 195 188 173 158 159 166 178 185 194 196 192 186 182 175 180 179 184 155 149 130 151
0 351 346 254 183 177 180 179 175 167 181 185 166 155 154 151 162 181 193 195 200 201 190 181 174 174 178 176 166 159 177 140
343 344 322 344 217 182 182 183 176 178 175 178 162 164 167 176 174 196 209 197 195 194 181 176 170 172 175 170 165 128 164 146
335 328 316 311 267 193 183 184 180 178 177 164 168 177 169 169 178 199 200 198 190 189 188 179 172 172 170 168 149 174 173 162